NWS Watch, Warning, Advisory or Statement is in effect for Boone County, KY. View Alert


Wilmington, OH NWS (KILN) Doppler Radar Loop using GRLevel3 Software
Last 10 volume scans
Wilmington, OH Radar using GRLevel3

  ILN Radar Status: 
                    FTMILN
                    MESSAGE DATE:  NOV 14 2018 18:06:25
                    KILN IS BACK IN SERVICE. THANK YOU FOR YOUR PATIENCE.
                    
                    

Wilmington, OH NWS Radar Loop
Wilmington OH Radar Loop

Regional Radar Loop
Regional Radar Loop

GOES 16 GeoColor (True Color daytime, multispectral IR at night) - Great Lakes Region Loop
Regional GOES 16 IR Band 15 - Great Lakes Region Loop


National Weather Service Regional Observations

Station State Time Temperature Dew Point RH Wind Heat Index Wind Chill Pressure Visibility Weather
Charleston West Virginia 11/15/2018 12:54 AM 33.1 30.9 92 NE (50) at 8 N/A 26.4 30.24 10.0 Light Rain
Chicago O'hare Illinois 11/15/2018 12:51 AM 27.0 23.0 85 S (180) at 3 N/A 23.0 30.32 10.0 --
Cleveland Ohio 11/15/2018 12:51 AM 28.9 18.0 63 E (100) at 9 N/A 20.7 30.41 10.0 --
Columbus Ohio 11/15/2018 12:51 AM 32.0 19.0 58 E (80) at 12 N/A 23.4 30.31 10.0 --
Covington Kentucky 11/15/2018 1:22 AM 30.9 28.0 89 ENE (60) at 18, 25 gusts N/A 19.4 30.20 3.0 Freezing Rain, Mist
Dayton Ohio 11/15/2018 12:56 AM 30.9 25.0 78 ENE (60) at 13 N/A 21.2 30.29 6.0 Light Freezing Rain
Dothan Alabama 11/15/2018 12:53 AM 44.1 41.0 89 NNW (330) at 15, 23 gusts N/A 37.0 30.14 10.0 Light Rain
Evansville Indiana 11/15/2018 1:17 AM 32.0 30.9 96 E (80) at 3 N/A 28.8 30.16 10.0 Unknown Precipitation
Fort Wayne Indiana 11/15/2018 12:54 AM 30.0 21.0 69 E (80) at 10 N/A 21.4 30.34 10.0 --
Frankfort Kentucky 11/15/2018 1:29 AM 33.1 30.0 88 ENE (60) at 8 N/A 26.4 30.17 5.0 Rain, Mist
Huntsville Alabama 11/15/2018 12:58 AM 36.0 36.0 100 WSW (250) at 7 N/A 30.4 30.17 10.0 --
Indianapolis Indiana 11/15/2018 12:54 AM 30.0 26.1 85 ENE (60) at 14, 26 gusts N/A 19.6 30.23 6.0 Light Freezing Rain, Mist
Knoxville Tennessee 11/15/2018 12:53 AM 42.1 42.1 100 NE (50) at 12 N/A 35.6 30.07 5.0 Light Rain, Mist
Lexington Kentucky 11/15/2018 1:16 AM 33.1 28.9 85 WNW (300) at 3 N/A 30.0 30.21 3.0 Rain, Mist
Louisville Kentucky 11/15/2018 1:32 AM 33.1 30.0 88 ENE (70) at 8 N/A 26.4 30.17 5.0 Light Rain, Mist
Nashville Tennessee 11/15/2018 12:53 AM 37.0 35.1 92 S (190) at 5 N/A 33.3 30.14 10.0 Light Rain
Noctor/Jackson Kentucky 11/15/2018 1:11 AM 33.1 32.0 96 Variable at 6 N/A 28.0 30.13 2.5 Light Rain, Mist
Paducah Kentucky 11/15/2018 1:13 AM 28.9 26.1 89 NNW (330) at 5 N/A 23.9 30.15 1.5 Light Snow, Mist
Pittsburgh Pennsylvania 11/15/2018 12:51 AM 28.9 18.0 63 ENE (70) at 8 N/A 21.4 30.38 10.0 --
St. Louis Missouri 11/15/2018 1:23 AM 28.0 27.0 96 N (360) at 10 N/A 18.7 30.23 1.0 Light Snow, Mist
West Palm Beach Florida 11/15/2018 12:53 AM 78.1 75.0 90 SSE (150) at 9 80.8 N/A 29.99 10.0 --
Wilmington Ohio 11/15/2018 12:54 AM 28.9 24.1 82 ENE (70) at 12 N/A 19.2 30.26 6.0 Light Freezing Rain

These are regional hourly observations made by the National Weather Service. The observations are usually made between 50 and 59 minutes past the hour and are usually available by 15 minutes past the next hour.


This page will reload automatically every 10 minutes.

38,534 Page Views